Waarnemingen

Advertentie
Mijn weer
Oostende Airport, België (6407): temperatuur & dauwpunt: 17.10.2017 09:00:00 - 23.10.2017 09:00:00 (CEST)Oostende Airport, België (6407): windsnelheid & windstoten: 17.10.2017 09:00:00 - 23.10.2017 09:00:00 (CEST)Oostende Airport, België (6407): windrichting: 17.10.2017 09:00:00 - 23.10.2017 09:00:00 (CEST)Oostende Airport, België (6407): luchtdruk: 17.10.2017 09:00:00 - 23.10.2017 09:00:00 (CEST)Oostende Airport, België (6407): zicht: 17.10.2017 09:00:00 - 23.10.2017 09:00:00 (CEST)
Datum & Tijd tt [°C] td [°C] ff [km/u] ff [kn] fx [km/u] fx [kn] dd ppp [hPa] vv [km]
23.10.2017 09:00:00 12,5 8,0 22 12 36 19 W 1019,0 10
23.10.2017 08:00:00 12,0 8,3 22 12 - - W 1019,1 10
23.10.2017 07:00:00 12,2 8,0 28 15 43 23 W 1018,8 10
23.10.2017 06:00:00 12,0 8,2 29 16 43 23 W 1018,8 10
23.10.2017 05:00:00 12,1 8,3 29 16 - - W 1018,2 10
23.10.2017 04:00:00 12,2 8,0 31 17 47 25 W 1017,9 10
23.10.2017 03:00:00 11,7 8,1 31 17 43 23 W 1017,8 10
23.10.2017 02:00:00 12,1 6,9 34 18 - - W 1017,8 10
23.10.2017 01:00:00 12,3 5,7 35 19 50 27 WNW 1017,7 10
23.10.2017 00:00:00 12,2 6,1 35 19 50 27 WNW 1017,3 10
22.10.2017 23:00:00 12,3 6,1 35 19 - - WNW 1016,8 10
22.10.2017 22:00:00 12,3 6,7 35 19 50 27 W 1016,1 10
22.10.2017 21:00:00 12,5 6,2 31 17 54 29 W 1015,8 10
22.10.2017 20:00:00 12,5 5,8 35 19 - - WNW 1015,2 10
22.10.2017 19:00:00 12,2 4,9 41 22 54 29 W 1014,7 10
22.10.2017 18:00:00 11,8 4,9 39 21 50 27 W 1014,3 10
22.10.2017 17:00:00 12,0 5,8 37 20 - - W 1014,0 10
22.10.2017 16:00:00 11,6 6,6 34 18 50 27 W 1013,6 10
22.10.2017 15:00:00 11,1 6,8 37 20 54 29 W 1013,2 10
22.10.2017 14:00:00 11,6 6,7 39 21 - - W 1013,0 10
22.10.2017 13:00:00 12,0 6,0 37 20 - - W - 10
22.10.2017 12:00:00 11,5 6,8 35 19 54 29 W 1012,1 10
22.10.2017 11:00:00 11,3 6,3 39 21 - - W 1011,4 10
22.10.2017 10:00:00 12,0 7,0 39 21 58 31 W 1010,9 10
22.10.2017 09:00:00 12,0 7,0 44 24 - - W - 10
22.10.2017 08:00:00 12,0 7,0 42 23 - - W - 10
22.10.2017 07:00:00 12,4 8,3 37 20 50 27 W 1008,3 10
22.10.2017 06:00:00 12,6 9,0 31 17 54 29 WZW 1007,6 10
22.10.2017 05:00:00 12,5 8,6 35 19 - - WZW 1007,2 10
22.10.2017 04:00:00 12,5 9,1 37 20 50 27 WZW 1007,1 10
22.10.2017 03:00:00 10,0 8,5 29 16 61 33 ZZW 1006,8 10
22.10.2017 02:00:00 9,7 8,3 41 22 - - ZZW 1006,3 7
22.10.2017 01:00:00 10,3 7,7 41 22 61 33 ZZW 1006,6 9
22.10.2017 00:00:00 10,5 7,9 35 19 54 29 ZZW 1007,2 10
21.10.2017 23:00:00 10,2 7,6 34 18 - - ZZW 1007,6 10
21.10.2017 22:00:00 11,1 7,6 31 17 43 23 ZZW 1007,8 10
21.10.2017 21:00:00 10,7 7,5 29 16 43 23 ZZW 1008,0 10
21.10.2017 20:00:00 11,0 7,6 29 16 - - ZZW 1008,5 10
21.10.2017 19:00:00 11,6 8,8 39 21 58 31 ZZW 1008,4 10
21.10.2017 18:00:00 12,3 7,9 29 16 65 35 ZW 1008,3 10
21.10.2017 17:00:00 11,9 8,6 39 21 - - ZW 1008,7 7
21.10.2017 16:00:00 14,9 8,8 29 16 61 33 ZW 1008,1 10
21.10.2017 15:00:00 15,4 9,4 34 18 65 35 ZW 1008,4 10
21.10.2017 14:00:00 15,5 9,2 42 23 - - ZZW 1008,4 10
21.10.2017 13:00:00 15,3 10,7 35 19 50 27 ZZW 1008,6 10
21.10.2017 12:00:00 14,1 11,6 24 13 47 25 ZW 1008,5 10
21.10.2017 11:00:00 13,9 10,9 22 12 - - ZZW 1008,4 10
21.10.2017 10:00:00 12,9 10,4 28 15 40 21 ZW 1008,1 10
21.10.2017 09:00:00 12,7 10,8 21 11 40 21 Z 1007,4 10
21.10.2017 08:00:00 12,3 10,5 26 14 - - Z 1006,9 10
21.10.2017 07:00:00 12,0 10,3 22 12 36 19 Z 1007,0 10
21.10.2017 06:00:00 11,6 9,4 22 12 40 21 Z 1007,3 6
21.10.2017 05:00:00 11,9 8,4 22 12 - - Z 1007,3 10
21.10.2017 04:00:00 11,3 7,8 22 12 43 23 Z 1008,1 10
21.10.2017 03:00:00 11,6 7,7 22 12 36 19 Z 1009,1 10
21.10.2017 02:00:00 11,3 7,7 18 10 - - Z 1010,1 10
21.10.2017 01:00:00 11,2 7,6 18 10 25 14 Z 1010,9 10
21.10.2017 00:00:00 11,2 7,8 16 9 25 14 Z 1011,2 10
20.10.2017 23:00:00 10,9 7,9 15 8 - - Z 1011,7 10
20.10.2017 22:00:00 11,3 8,7 13 7 25 14 Z 1012,1 10
20.10.2017 21:00:00 11,5 7,9 15 8 22 12 Z 1012,0 10
20.10.2017 20:00:00 10,4 7,2 16 9 - - ZZW 1012,0 10
20.10.2017 19:00:00 12,1 7,1 24 13 54 29 ZW 1011,4 10
20.10.2017 18:00:00 13,4 7,6 34 18 54 29 ZW 1011,0 10
20.10.2017 17:00:00 13,9 7,6 37 20 - - WZW 1010,3 10
20.10.2017 16:00:00 13,9 8,4 34 18 54 29 WZW 1009,4 10
20.10.2017 15:00:00 13,6 9,0 37 20 58 31 WZW 1008,8 10
20.10.2017 14:00:00 13,2 10,9 31 17 - - ZW 1008,1 10
20.10.2017 13:00:00 12,8 11,1 35 19 54 29 ZW 1007,6 4,0
20.10.2017 12:00:00 11,8 10,5 31 17 65 35 ZZW 1006,4 2,5
20.10.2017 11:00:00 11,3 9,9 37 20 - - ZZW 1005,6 3,2
20.10.2017 10:00:00 11,7 9,6 39 21 54 29 ZZW 1005,2 10
20.10.2017 09:00:00 12,0 9,2 34 18 54 29 ZZW 1004,7 10
20.10.2017 08:00:00 12,2 9,8 29 16 - - ZZW 1004,4 10
20.10.2017 07:00:00 12,3 10,2 24 13 36 19 ZZW 1004,2 10
20.10.2017 06:00:00 13,4 11,8 24 13 43 23 Z 1003,8 10
20.10.2017 05:00:00 13,6 12,1 28 15 - - Z 1003,8 8
20.10.2017 04:00:00 13,8 12,0 29 16 47 25 ZZW 1004,3 3,5
20.10.2017 03:00:00 15,7 12,0 24 13 43 23 Z 1004,0 10
20.10.2017 02:00:00 16,0 12,2 26 14 - - Z 1004,4 10
20.10.2017 01:00:00 16,3 11,9 24 13 40 21 Z 1004,7 10
20.10.2017 00:00:00 16,5 11,9 21 11 32 18 Z 1005,1 10
19.10.2017 23:00:00 17,1 12,5 18 10 - - Z 1005,3 10
19.10.2017 22:00:00 16,9 13,1 21 11 29 16 ZZO 1005,1 10
19.10.2017 21:00:00 17,0 13,2 18 10 25 14 ZZO 1005,5 10
19.10.2017 20:00:00 17,2 13,3 13 7 - - Z 1006,2 10
19.10.2017 19:00:00 18,2 13,8 13 7 29 16 Z 1005,9 10
19.10.2017 18:00:00 19,4 13,7 16 9 32 18 Z 1006,0 10
19.10.2017 17:00:00 20,0 14,4 16 9 - - Z 1006,1 10
19.10.2017 16:00:00 20,4 13,6 26 14 36 19 Z 1005,9 10
19.10.2017 15:00:00 19,1 13,0 26 14 40 21 ZZO 1006,4 10
19.10.2017 14:00:00 19,2 14,0 29 16 - - ZZO 1007,0 10
19.10.2017 13:00:00 17,6 13,3 21 11 32 18 ZZO 1007,7 10
19.10.2017 12:00:00 15,5 11,8 24 13 32 18 ZZO 1008,3 10
19.10.2017 11:00:00 14,9 11,6 18 10 - - ZZO 1008,8 10
19.10.2017 10:00:00 13,3 10,9 13 7 22 12 ZO 1009,0 10
19.10.2017 09:00:00 10,4 8,8 8 4 11 6 OZO 1009,1 8
19.10.2017 08:00:00 10,0 9,0 5 3 - - OZO - 6
19.10.2017 07:00:00 10,6 9,2 8 4 11 6 O 1009,6 4,8
19.10.2017 06:00:00 11,2 10,0 5 3 7 4 O 1009,8 3,5
19.10.2017 05:00:00 11,7 10,6 4 2 - - ZO 1010,3 4,2
19.10.2017 04:00:00 11,5 10,1 9 5 11 6 ZO 1010,7 3,5
19.10.2017 03:00:00 11,7 10,5 8 4 7 4 ZO 1011,3 3,0
19.10.2017 02:00:00 12,1 11,0 5 3 - - ZO 1011,5 3,2
19.10.2017 01:00:00 12,4 11,2 13 7 14 8 ZO 1011,6 4,0
19.10.2017 00:00:00 12,5 11,3 5 3 7 4 ZO 1011,7 1,8
18.10.2017 23:00:00 12,9 11,8 5 3 - - ZO 1011,7 1,8
18.10.2017 22:00:00 13,5 12,4 4 2 7 4 ZO 1011,8 3,8
18.10.2017 21:00:00 14,7 13,1 5 3 11 6 ZZO 1012,0 5
18.10.2017 20:00:00 15,8 13,5 4 2 - - OZO 1011,8 6
18.10.2017 19:00:00 16,2 13,7 4 2 11 6 - 1011,7 7
18.10.2017 18:00:00 16,6 13,8 8 4 14 8 Z 1011,8 7
18.10.2017 17:00:00 16,3 13,5 11 6 - - ZZW 1011,9 7
18.10.2017 16:00:00 16,1 13,3 9 5 14 8 Z 1011,9 6
18.10.2017 15:00:00 17,1 14,2 11 6 22 12 ZW 1012,1 7
18.10.2017 14:00:00 17,9 13,5 11 6 - - ZZO 1012,4 8
18.10.2017 13:00:00 16,0 12,6 8 4 14 8 Z 1012,6 7
18.10.2017 12:00:00 14,3 11,8 11 6 18 10 ZZO 1012,9 5
18.10.2017 11:00:00 12,4 10,9 11 6 - - ZZO 1013,1 3,0
18.10.2017 10:00:00 11,9 10,9 9 5 22 12 OZO 1013,0 0,8
18.10.2017 09:00:00 11,8 10,4 9 5 22 12 O 1013,0 4,0
18.10.2017 08:00:00 11,5 9,9 13 7 - - O 1013,1 7
18.10.2017 07:00:00 12,3 10,4 13 7 25 14 ONO 1013,6 10
18.10.2017 06:00:00 12,9 10,6 16 9 22 12 ONO 1014,0 10
18.10.2017 05:00:00 13,0 10,9 16 9 - - NO 1014,1 10
18.10.2017 04:00:00 13,6 11,5 13 7 18 10 NO 1014,8 10
18.10.2017 03:00:00 13,5 11,2 11 6 22 12 NO 1015,5 10
18.10.2017 02:00:00 13,8 10,9 11 6 - - ONO 1016,0 10
18.10.2017 01:00:00 13,4 10,8 11 6 14 8 NO 1016,6 10
18.10.2017 00:00:00 12,7 10,7 8 4 11 6 NNO 1017,3 10
17.10.2017 23:00:00 11,5 9,6 8 4 - - NNO 1017,4 10
17.10.2017 22:00:00 11,5 9,6 5 3 7 4 ONO 1017,9 10
17.10.2017 21:00:00 11,8 9,8 5 3 7 4 O 1018,3 10
17.10.2017 20:00:00 12,8 9,9 4 2 - - O 1018,9 10
17.10.2017 19:00:00 13,8 10,1 2 1 4 2 - 1018,9 10
17.10.2017 18:00:00 15,0 11,0 4 2 7 4 NW 1019,3 10
17.10.2017 17:00:00 14,9 10,3 5 3 - - WNW 1019,6 10
17.10.2017 16:00:00 15,1 11,1 11 6 14 8 W 1020,2 10
17.10.2017 15:00:00 15,5 10,8 9 5 18 10 ZW 1021,0 10
17.10.2017 14:00:00 14,9 11,8 9 5 - - ZW 1021,8 10
17.10.2017 13:00:00 13,5 11,2 11 6 18 10 ZW 1022,4 10
17.10.2017 12:00:00 12,9 10,8 9 5 18 10 ZZW 1022,1 10
17.10.2017 11:00:00 12,3 10,2 13 7 - - Z 1022,2 10
17.10.2017 10:00:00 11,5 9,6 8 4 14 8 ZW 1022,3 10
17.10.2017 09:00:00 11,9 9,6 9 5 18 10 Z 1022,0 10

tt = temperatuur
td = dauwpunt
ff = windsnelheid
fx = windstoten
dd = windrichting
ppp = luchtdruk
vv = zicht

Weerstations in de omgeving